FREGAT DEB, 45841

Orbit data source: Space-Track

FREGAT DEB, 45841 is space debris in LEO originally from a launch on Mon, 18 Jul 2011 UTC launched from the Tyuratam Missile And Space Complex (TTMTR). Debris objects in space refer to the collection of defunct objects orbiting the Earth. Examples of debris include non-operational satellites, rocket bodies, and fragments generated from explosions, collisions, or faulty payload assembly.

Loading next visibility...
Identifier
45841, 2011-037CB
Orbit
LEO
Country
Flag of CISCIS
Related business
Manufacturer
Lavochkin
Mission
Spacecraft
Bus & Motor
Unknown
Mass
Unknown
Launch date (UTC)
2011-07-18 (15 years ago)
Launch vehicle
Unknown
Launch site
Tyuratam Missile And Space Complex (TTMTR)
Object type
Payload
Rocket body
Debris
Shape & HBR
Unknown shape, 0.1 m
Radar Cross Section
Small (<0.1 m²)

Expand to show TLE details & history
Last TLE update: 2 days ago

TLE from 2 days ago
0 FREGAT DEB
1 45841U 11037CB  26032.71057024  .00001197  00000-0  21042-2 0  9992
2 45841  51.5104 161.3118 1928472 203.7483 146.1258 10.59678032219146
Epoch: 2026-02-01T17:03Z
TLE epoch observation values (Epoch: 2026-02-01T17:03:13.268Z)
Latitude
0.00001°
Longitude
133.59022°
Altitude
3,860.542 km
Speed
5.688 km/s
True Right ascension
10h 45m 14s
True Declination
0° 00' 00"
Sunlit
Object was in full shadow at epoch
Visualization orbit readout
Latitude
Unknown
Longitude
Unknown
Altitude
Unknown
Speed
Unknown
Apparent Right ascension
Unknown
Apparent Declination
Unknown
Sunlit
N/A
Visualization observer readout
Local Sidereal Time
23:45:11
Azimuth
Unknown
Elevation
Unknown
Doppler factor
Unknown
Orbital elements
Apogee altitude
4,066.476 km
Perigee altitude
689.322 km
Semi-major axis
8,756.036 km
Eccentricity
0.19285
Inclination
51.5104°
RAAN
161.3118°
Arg. of periapsis
203.7483°
True anomaly
156.32673°
Mean anomaly
146.1258°
Eccentric anomaly
151.41285°
Mean motion
2.649 °/min
Orbital period
135.9 mins
BSTAR
0.0021042
Loading maneuver chart data...
Computing Atmospheric mass density...
Loading historical data...
Loading historical data...
Loading historical data...
Loading historical data...
Loading historical data...
Loading historical data...
Loading historical data...

Documentation

Showing up to 5 results
|